Weather in Baturino

Russia / Tomsk District     56°15′41″N   84°58′22″E
temp.,
°C
wind,
m/s
gust,
m/s
humid.,
%
clouds,
%
prec.,
mm/h
press.,
hPa
HPBL,
m
4 july, mon
mon401:00+12wsw009144 0.1 100610
04:00+10s119629 0.0 100612
07:00+12s238536 0.0 1007130
10:00+19sw12585 0.0 1007835
13:00+22ssw224446 0.0 10061998
16:00+19nw126666 0.2 1006704
19:00+20ese116611 0.6 1005530
22:00+14e22875 0.1 100528
5 july, tue
tue501:00+12e259159 0.1 100490
04:00+12e399258 0.0 1003174
07:00+15ene39815 0.0 1002272
10:00+21e465833 0.0 1001719
13:00+24ene444415 0.0 9991840
16:00+26ene343919 0.0 9982217
19:00+24ene365376 0.0 997757
22:00+19e3977100 0.2 997287
6 july, wed
wed601:00+16s31095100 2.3 998330
04:00+14sse2797100 0.0 999262
07:00+14se2596100 0.0 1000204
10:00+17se2385100 0.2 1001478
13:00+22s34598 2.3 10001360
16:00+20s227819 2.3 1001886
19:00+19s239133 4.1 1002503
22:00+15s2598100 1.1 1004120
7 july, thu
thu701:00+13s2298100 1.1 100540
04:00+13sw1198100 0.0 100511
07:00+14nnw1297100 0.1 1006122
10:00+15nnw3798100 0.4 1007556
13:00+14nnw41098100 1.7 1009617
16:00+14nnw1493100 0.6 1010301
19:00+14s249597 0.8 1010136
22:00+14s2394100 0.0 101062
8 july, fri
fri801:00+14wsw2294100 0.3 100936
04:00+12wnw119399 0.0 100916
07:00+13n139358 0.0 101064
10:00+17nnw137557 0.0 1010300
13:00+24n35385 0.0 10092054
16:00+25n443579 0.0 10082567
19:00+24nne354732 0.0 1008630
22:00+17nne117623 0.0 100911